Skip Page Navigation
NASA JPL Caltech
NASA Logo - Jet Propulsion Laboratory + View the NASA Portal
+ Center for Near-Earth Object Studies
JPL Home Earth Solar System Stars & Galaxies Technology
JPL Solar System Dynamics
BODIES ORBITS EPHEMERIDES TOOLS PHYSICAL DATA DISCOVERY FAQ SITE MAP
JPL Small-Body Database Browser
Search: [ help ]  
(2021 AA6)
Classification: Aten [NEO]          SPK-ID: 54105522
Ephemeris | Orbit Diagram | Orbital Elements | Mission Design | Physical Parameters | Close-Approach Data ]

[ hide orbit diagram ]

For accurate long-term ephemerides, please instead use our Horizons system.This orbit viewer was implemented using two-body methods, and hence should not be used for determining accurate long-term trajectories (over several years or decades) or planetary encounter circumstances.


Orbital Elements at Epoch 2459200.5 (2020-Dec-17.0) TDB
Reference: JPL 7 (heliocentric ecliptic J2000)
 Element Value Uncertainty (1-sigma)   Units 
e .3923941386676296 0.00048538  
a .8983353592184339 0.00010069 au
q .5458338297032409 0.00037488 au
i 14.39885002178926 0.024118 deg
node 295.8140800569004 0.00094048 deg
peri 307.1721433217251 0.0039539 deg
M 239.9739205364518 0.072972 deg
tp 2459304.188188689190
(2021-Mar-30.68818869)
0.045609 TDB
period 310.9969774480942
0.85
0.05229
0.0001432
d
yr
n 1.157567520282683 0.00019463 deg/d
Q 1.250836888733627 0.00014021 au
  Orbit Determination Parameters
   # obs. used (total)      39  
   data-arc span      5 days  
   first obs. used      2021-01-12  
   last obs. used      2021-01-17  
   planetary ephem.      DE441  
   SB-pert. ephem.      SB441-N16  
   condition code      7  
   norm. resid. RMS      .36375  
   source      ORB  
   producer      Otto Matic  
   solution date      2021-Apr-15 23:22:54  

Additional Information
 Earth MOID = .0063653 au 
 Jupiter MOID = 3.81151 au 
 T_jup = 6.533 
[ show covariance matrix ]

Ephemeris | Orbit Diagram | Orbital Elements | Mission Design | Physical Parameters | Close-Approach Data ]

Physical Parameter Table
Parameter Symbol Value Units Sigma Reference Notes
absolute magnitude H 26.8   .36322 E2021D54 autocmod 2.8

[ show close-approach data ]
Ephemeris | Orbit Diagram | Orbital Elements | Mission Design | Physical Parameters | Close-Approach Data ]
ABOUT SSD CREDITS/AWARDS PRIVACY/COPYRIGHT GLOSSARY LINKS
FirstGov 2021-Apr-16 15:21 UT
(server date/time)  
NASA Home Page
Site Manager:   Ryan S. Park
Webmaster  Alan B. Chamberlin